Location: ??????
(55.6361°N, 38.0803°E)
Time: 03:12:09
(UTC+00:00)

Cosmos 1975 - Pass Details

Date: 30 March 2020
Orbit: 542 x 561 km, 82.5° (Epoch: 31 May)

Event Time Altitude Azimuth Distance (km) Brightness Sun altitude
Rises 01:10:12 0° 350° (N) 2,725 6.7 -15.7°
Reaches altitude 10° 01:12:24 10° 354° (N) 1,829 5.8 -15.5°
Maximum altitude 01:16:23 59° 75° (ENE) 640 3.4 -15.0°
Drops below altitude 10° 01:20:20 10° 155° (SSE) 1,823 5.4 -14.5°
Sets 01:22:31 0° 159° (SSE) 2,715 6.3 -14.2°
